Location: Newark
(48.1500°N, 2.9667°W)
Time: 04:48:09
(UTC+00:00)

Altair - Pass Details

Date: 28 January 2020
Orbit: 1502 x 1682 km, 47.2° (Epoch: 19 February)

Event Time Altitude Azimuth Distance (km) Brightness Sun altitude
Rises 08:32:53 0° 235° (SW) 4,862 9.9 5.9°
Reaches altitude 10° 08:36:00 10° 233° (SW) 3,895 9.5 6.3°
Maximum altitude 08:45:52 65° 155° (SSE) 1,817 8.4 7.6°
Drops below altitude 10° 08:55:53 10° 76° (ENE) 3,945 10.2 8.9°
Sets 08:59:04 0° 74° (ENE) 4,927 10.6 9.3°
